This demonstration page uses our WeatherBlox Daily Observations layout. Learn more.

Left ArrowRight Arrow

Hourly Observations for March 10, 2016

Temp ( °F °C ) Dew Point ( °F °C ) Humidity (%) Winds ( mph kmh ) Pressure ( in mb ) Visibility ( mi km ) Precip ( " mm )
12:07 am 00:07 Cloudy with Mist and Fog 57 13.9 56 13.3 96 96 N N/A 30.06 1018 1 2 N/A
12:42 am 00:42 Cloudy with Fog 56 13.3 56 13.3 100 100 N N/A 30.09 1019 1 1 0.01 0.25
12:53 am 00:53 Cloudy with Mist and Fog 56 13.3 56 13.3 100 100 E 3 6 30.04 1017 1 2 0.01 0.25
1:13 am 01:13 Cloudy with Mist and Fog 57 13.9 56 13.3 96 96 N N/A 30.06 1018 2 3 N/A
1:39 am 01:39 Cloudy with Mist and Fog 56 13.3 56 13.3 100 100 E 3 6 30.06 1018 1 2 N/A
1:53 am 01:53 Cloudy with Mist and Fog 57 13.9 56 13.3 96 96 N N/A 30.03 1017 2 2 N/A
2:23 am 02:23 Cloudy with Light Rain 57 13.9 56 13.3 96 96 N N/A 30.03 1017 2 3 N/A
2:42 am 02:42 Cloudy with Light Rain 58 14.4 57 13.9 97 97 N N/A 30.03 1017 3 4 0.03 0.76
2:51 am 02:51 Cloudy with Light Rain 57 14 57 14 100 100 E 3 6 30.03 1017 3 5 0.04 1.02
2:53 am 02:53 Cloudy with Light Rain 57 13.9 56 13.3 96 96 N N/A 30.02 1017 3 4 0.04 1.02
3:07 am 03:07 Cloudy with Light Rain 57 13.9 56 13.3 96 96 E 5 7 30.03 1017 3 5 N/A
3:20 am 03:20 Cloudy with Light Rain 57 13.9 56 13.3 96 96 ESE 3 6 30.03 1017 3 4 N/A
3:51 am 03:51 Cloudy with Light Rain 57 14 57 14 100 100 ESE 3 6 30.03 1017 3 5 0.03 0.76
3:53 am 03:53 Cloudy with Light Rain 57 13.9 57 13.9 100 100 ESE 3 6 30.01 1016 3 5 0.03 0.76
4:53 am 04:53 Cloudy with Mist and Fog 57 13.9 56 13.3 96 96 N N/A 30.01 1016 5 8 0.01 0.25
5:53 am 05:53 Cloudy 59 15 56 13.3 90 90 SSE 5 7 30.01 1016 10 16 N/A
6:53 am 06:53 Cloudy 61 16.1 57 13.9 87 87 SSW 5 7 30.01 1016 10 16 N/A
7:53 am 07:53 Cloudy 61 16.1 57 13.9 87 87 SSW 6 9 30.01 1016 10 16 N/A
8:19 am 08:19 Cloudy with Light Rain 60 15.6 57 13.9 90 90 S 6 9 30.00 1016 5 8 0.01 0.25
8:53 am 08:53 Cloudy 60 15.6 58 14.4 93 93 SSW 3 6 30.02 1017 9 14 0.02 0.51
9:23 am 09:23 Cloudy with Light Rain 60 15.6 58 14.4 93 93 SSW 3 6 30.03 1017 8 13 N/A
9:53 am 09:53 Cloudy with Light Rain 61 16.1 58 14.4 90 90 VRB 3 6 30.03 1017 6 10 0.01 0.25
10:53 am 10:53 Cloudy with Light Rain 61 16.1 58 14.4 90 90 WSW 5 7 30.03 1017 6 10 0.02 0.51
11:36 am 11:36 Cloudy with Light Rain 61 16.1 59 15 93 93 N N/A 30.03 1017 3 5 0.05 1.27
11:53 am 11:53 Cloudy with Light Rain 61 16.1 59 15 93 93 SW 6 9 30.02 1017 7 11 0.05 1.27
12:53 pm 12:53 Cloudy 62 16.7 60 15.6 93 93 WSW 6 9 30.00 1016 10 16 N/A
1:53 pm 13:53 Cloudy with Light Rain 62 16.7 60 15.6 93 93 SW 7 11 30.00 1016 3 5 0.01 0.25
1:59 pm 13:59 Cloudy with Rain 62 16.7 60 15.6 93 93 SW 8 13 30.00 1016 2 3 0.02 0.51
2:15 pm 14:15 Cloudy with Rain 62 16.7 60 15.6 93 93 SSW 3 6 30.00 1016 2 2 0.06 1.52
2:23 pm 14:23 Cloudy with Light Rain 62 16.7 60 15.6 93 93 SW 6 9 30.00 1016 2 3 0.07 1.78
2:36 pm 14:36 Cloudy with Light Rain 62 16.7 60 15.6 93 93 SSW 7 11 30.00 1016 3 5 0.08 2.03
2:53 pm 14:53 Cloudy with Light Rain 62 16.7 60 15.6 93 93 SW 7 11 29.98 1015 4 6 0.10 2.54
3:18 pm 15:18 Cloudy with Rain 62 16.7 60 15.6 93 93 SSW 5 7 29.97 1015 3 4 0.04 1.02
3:30 pm 15:30 Cloudy with Light Rain 62 16.7 60 15.6 93 93 SSW 5 7 29.97 1015 3 5 0.06 1.52
3:53 pm 15:53 Cloudy with Light Rain 62 16.7 60 15.6 93 93 SSW 5 7 29.97 1015 4 6 0.08 2.03
4:27 pm 16:27 Cloudy with Light Rain 62 16.7 60 15.6 93 93 SW 8 13 29.97 1015 4 6 0.02 0.51
4:50 pm 16:50 Cloudy with Rain 63 17 61 16 94 94 SW 7 11 29.97 1015 2 3 0.06 1.52
4:53 pm 16:53 Cloudy with Rain 62 16.7 60 15.6 93 93 SW 7 11 29.98 1015 2 3 0.07 1.78
5:01 pm 17:01 Cloudy with Heavy Rain 62 16.7 60 15.6 93 93 SW 7 11 30.00 1016 2 2 0.03 0.76
5:07 pm 17:07 Cloudy with Rain 62 16.7 60 15.6 93 93 SW 8 13 30.00 1016 2 3 0.04 1.02
5:25 pm 17:25 Cloudy with Rain 62 16.7 60 15.6 93 93 SW 9 15 30.00 1016 3 4 0.08 2.03
5:34 pm 17:34 Cloudy with Rain 62 16.7 60 15.6 93 93 SW 8 13 30.00 1016 3 5 0.10 2.54
5:50 pm 17:50 Cloudy with Rain 63 17 61 16 94 94 WSW 7 11 30.00 1016 3 5 0.12 3.05
5:53 pm 17:53 Cloudy with Rain 61 16.1 60 15.6 97 97 W 8 13 29.99 1016 3 5 0.13 3.30
6:07 pm 18:07 Cloudy with Rain 60 15.6 59 15 96 96 NNW 8 13 30.00 1016 3 4 0.04 1.02
6:10 pm 18:10 Cloudy with Rain 60 15.6 59 15 96 96 NNW 7 11 30.00 1016 3 5 0.04 1.02
6:17 pm 18:17 Cloudy with Light Rain 60 15.6 58 14.4 93 93 N 8 13 30.00 1016 3 5 0.05 1.27
6:27 pm 18:27 Cloudy with Light Rain 60 15.6 58 14.4 93 93 N 7 11 30.00 1016 4 6 0.05 1.27
6:53 pm 18:53 Cloudy with Light Rain 59 15 57 13.9 93 93 N 8 13 30.02 1017 5 8 0.09 2.29
7:00 pm 19:00 Cloudy with Light Rain 59 15 56 13.3 90 90 N 6 9 30.03 1017 5 8 N/A
7:15 pm 19:15 Cloudy with Light Rain 58 14.4 56 13.3 93 93 NNW 7 11 30.03 1017 7 11 0.02 0.51
7:24 pm 19:24 Cloudy with Light Rain 58 14.4 56 13.3 93 93 NNW 12 19 30.06 1018 7 11 0.02 0.51
7:35 pm 19:35 Cloudy with Light Rain 57 13.9 55 12.8 93 93 NNW 12 19 30.06 1018 7 11 0.03 0.76
7:53 pm 19:53 Cloudy with Light Rain 56 13.3 53 11.7 90 90 NNW 14 22 30.06 1018 9 14 0.04 1.02
8:04 pm 20:04 Cloudy with Light Rain 56 13.3 53 11.7 90 90 NNW 12 19 30.09 1019 10 16 0.01 0.25
8:14 pm 20:14 Cloudy with Light Rain 55 12.8 53 11.7 93 93 NNW 10 17 30.09 1019 9 14 0.01 0.25
8:43 pm 20:43 Cloudy with Light Rain 54 12.2 51 10.6 90 90 NNW 13 20 30.09 1019 7 11 0.03 0.76
8:53 pm 20:53 Cloudy with Light Rain 53 11.7 51 10.6 93 93 N 8 13 30.09 1019 7 11 0.03 0.76
9:08 pm 21:08 Cloudy with Light Rain 53 11.7 51 10.6 93 93 N 12 19 30.09 1019 7 11 N/A
9:38 pm 21:38 Cloudy with Light Rain 52 11.1 50 10 93 93 NE 7 11 30.09 1019 4 6 0.01 0.25
9:53 pm 21:53 Cloudy 52 11.1 50 10 93 93 N 3 6 30.10 1019 10 16 0.01 0.25
10:53 pm 22:53 Mostly Cloudy 52 11.1 49 9.4 89 89 NNW 5 7 30.11 1020 10 16 N/A
11:53 pm 23:53 Cloudy 52 11.1 49 9.4 89 89 N 5 7 30.12 1020 10 16 N/A

Powered by AerisWeather